sat.trackr.live / text

‹ back to catalog

UNKNOWN

NORAD 81497

UNKNOWN UNKNOWN UNKNOWN

§ Identity

Operator
Country
Launch date
Launch site
Launch vehicle
Mass (kg)
RCS (m²)

External: N2YO · Heavens-Above

§ Orbital elements

Epoch: 2026-05-24T00:55:49.436832Z

Period
103.94 min
Inclination
100.2990°
Eccentricity
0.0027941
Mean motion
13.85372260 rev/d
Perigee alt
924.4 km
Apogee alt
965.4 km
Semi-major
7,323.0 km
B*
2.4227e-3
RAAN
59.3250°
Arg perigee
320.2555°
Mean anomaly
55.7028°
Rev number
23,876

§ Raw data

UNKNOWN1 81497U          26144.03876663  .00002714  00000+0  24227-2 0  99972 81497 100.2990  59.3250 0027941 320.2555  55.7028 13.85372260238761

JSON: /api/v1/satellites/81497 · /tle

For live sub-satellite position, see the globe view (requires WebGL).

§ Visibility from observer

Set your observer location to see the next 7 days of passes ≥ 10°. The values pass through the URL so the page stays shareable.

No JS? Fill the form by hand. The geolocation button needs JavaScript.